Tracking 30261 objects as of 18-Feb-2025
HD Live streaming from Space Station
objects crossing your sky now

STARLINK-5159

Track STARLINK-5159 now!
10-day predictions
STARLINK-5159 is classified as:


NORAD ID: 53974
Int'l Code: 2022-125L
Perigee: 546.2 km
Apogee: 547.6 km
Inclination: 53.2 °
Period: 95.4 minutes
Semi major axis: 6917 km
RCS: Unknown
Launch date: October 5, 2022
Source: United States (US)
Launch site: AIR FORCE WESTERN TEST RANGE (AFWTR)
Your satellite tracking list
Your tracking list is empty




NASA's NSSDC Master Catalog

Two Line Element Set (TLE):
1 53974U 22125L   25048.93480742 -.00002294  00000-0 -12618-3 0  9996
2 53974  53.2173 130.9602 0001005 105.7168 254.3935 15.08823487131592
Source of the keplerian elements: AFSPC